Location: Brompton
(51.4000°N, 0.5333°E)
Time: 03:25:54
(UTC+00:00)

Cosmos 2228 Rocket - Pass Details

Date: 11 May 2021
Orbit: 619 x 651 km, 82.5° (Epoch: 13 June)

Event Time Altitude Azimuth Distance (km) Brightness Sun altitude
Exits shadow 21:45:36 22° 175° (S) 1,359 4.3 -15.0°
Maximum altitude 21:48:21 68° 97° (E) 682 3.1 -15.2°
Drops below altitude 10° 21:52:49 10° 15° (NNE) 2,030 6.3 -15.6°
Sets 21:55:05 0° 13° (NNE) 2,949 7.3 -15.8°
